Location: Ecklingerode
(51.5036°N, 10.3122°E)
Time: 07:33:36
(UTC+00:00)

CZ-4 R/B - Pass Details

Date: 29 October 2020
Orbit: 532 x 598 km, 97.7° (Epoch: 01 December)

Event Time Altitude Azimuth Distance (km) Brightness Sun altitude
Rises 17:24:28 0° 155° (SSE) 2,694 4.6 -14.1°
Reaches altitude 10° 17:26:35 10° 152° (SSE) 1,799 3.7 -14.5°
Maximum altitude 17:30:25 62° 72° (ENE) 610 1.2 -15.1°
Drops below altitude 10° 17:34:14 10° 352° (N) 1,798 4.0 -15.7°
Sets 17:36:22 0° 349° (N) 2,693 5.0 -16.0°
